User: anonymous   Login
Location: Young's Pond
(41.2695°N, 72.7766°W)
Time: 08:49:50
(UTC-05:00)
Language:

Spot 4 - Orbit

View from above orbital plane
View from above orbital plane
View from above satellite
View from above satellite

Ground track
Ground track

The orbit data is extracted from the following two-line orbital elements,

1 25260U 98017A   16345.50676917  .00000100  00000-0  34927-4 0  9990
2 25260  98.3669  62.4162 0014006 130.2005 230.0420 14.53449465974445
Epoch (UTC): 10 December 2016 12:09:44
Eccentricity: 0.0014006
inclination: 98.3669°
perigee height: 704 km
apogee height: 724 km
right ascension of ascending node: 62.4162°
argument of perigee: 130.2005°
revolutions per day: 14.53449465
mean anomaly at epoch: 230.0420°
orbit number at epoch: 97444

The dashed part of the orbit path shows where the satellite is in the earth's shadow,  

DLR